{"data":{"norad_id":67310,"intl_designator":"2026-002F","name":"STARLINK-36491","alt_names":[],"object_type":"PAYLOAD","status":"ACTIVE","operator":null,"country":"US","launch_date":"2026-01-04","launch_site_code":"AFETR","launch_vehicle":null,"mission":null,"orbit_class":"UNKNOWN","rcs_meters":null,"size_class":null,"mass_kg":null,"dimensions":null,"purposes":["comms"],"wikipedia_slug":null,"has_3d_model":false,"image_url":null,"decayed_at":null,"tle_current":{"epoch":"2026-09-19T11:28:49.217952Z","epoch_age_seconds":163668,"freshness":"FRESH","line1":"1 67310U 26002F   26262.47834743  .00014953  00000+0  55145-3 0  9999","line2":"2 67310  43.0037 311.0946 0003797 282.9980  77.0448 15.27596647 40718","mean_motion":15.27596647,"eccentricity":0.0003797,"inclination_deg":43.0037,"raan_deg":311.0946,"arg_perigee_deg":282.998,"mean_anomaly_deg":77.0448,"bstar":0.00055145,"rev_number":4071,"period_min":94.265721440799,"perigee_km":480.39407595171,"apogee_km":485.60442281949,"semimajor_km":6861.1362493856,"source":"CELESTRAK","updated_at":"2026-09-20T09:00:43.503366Z"}}}